This is the latest recevied weather packets stored in our database for station/object KC9NPJ-13. If no packets are shown the sender has not sent any weather packets the latest 10 day(s).
| Time | Temp. | Humidity | Pressure | Rain* | Wind** | Luminosity | Snow |
|---|---|---|---|---|---|---|---|
| 1778107135 | 15° C | 65% | 1016.1 hPa | 0 mm | - | - | - |
| 1778106835 | 15° C | 65% | 1016.3 hPa | 0 mm | - | - | - |
| 1778106535 | 15.56° C | 63% | 1016.3 hPa | 0 mm | - | - | - |
| 1778106235 | 15.56° C | 65% | 1016.4 hPa | 0 mm | - | - | - |
| 1778105935 | 15° C | 67% | 1016.4 hPa | 0 mm | - | - | - |
| 1778105635 | 15° C | 62% | 1016.3 hPa | 0 mm | - | - | - |
| 1778105335 | 15° C | 66% | 1016.3 hPa | 0 mm | - | - | - |
| 1778105035 | 15° C | 66% | 1016.2 hPa | 0 mm | - | - | - |
| 1778104735 | 14.44° C | 65% | 1016.3 hPa | 0 mm | - | - | - |
| 1778104435 | 14.44° C | 66% | 1016.4 hPa | 0 mm | - | - | - |
| 1778104135 | 14.44° C | 65% | 1016.3 hPa | 0 mm | - | - | - |
| 1778103835 | 14.44° C | 67% | 1016.4 hPa | 0 mm | - | - | - |
| 1778103535 | 15° C | 66% | 1016.3 hPa | 0 mm | - | - | - |
| 1778103235 | 15.56° C | 65% | 1016.2 hPa | 0 mm | - | - | - |
| 1778102935 | 15.56° C | 66% | 1016 hPa | 0 mm | - | - | - |
| 1778102635 | 15.56° C | 67% | 1016.2 hPa | 0 mm | - | - | - |
| 1778102335 | 15° C | 67% | 1016.2 hPa | 0 mm | - | - | - |
| 1778102035 | 15° C | 61% | 1016 hPa | 0 mm | - | - | - |
| 1778101735 | 15.56° C | 57% | 1016.2 hPa | 0 mm | - | - | - |
| 1778101435 | 15.56° C | 61% | 1016.1 hPa | 0 mm | - | - | - |
| 1778101135 | 15.56° C | 63% | 1016.2 hPa | 0 mm | - | - | - |
| 1778100835 | 15.56° C | 65% | 1016.5 hPa | 0 mm | - | - | - |
| 1778100535 | 15.56° C | 67% | 1016.6 hPa | 0 mm | - | - | - |
| 1778100235 | 15.56° C | 64% | 1016.6 hPa | 0 mm | - | - | - |
| 1778099935 | 16.11° C | 61% | 1016.6 hPa | 0 mm | - | - | - |
* Rain latest hour (hover to see other rain measurements)
** Current wind speed in m/s (hover to see current wind gust speed)